Location: lozzo di cadore
(46.4899°N, 12.4508°E)
Time: 22:22:06
(UTC+01:00)

N. Korean satellite - Visible Passes

Search period start: 15 January 2021 00:00
Search period end: 25 January 2021 00:00
Orbit: 453 x 502 km, 97.2° (Epoch: 15 January)

Date Brightness Start Highest point End Pass type
(mag) Time Alt. Az. Time Alt. Az. Time Alt. Az.
15 Jan 7.0 05:31:09 10° NNE 05:34:40 58° E 05:38:05 10° S visible
15 Jan 8.4 07:06:16 10° NW 07:07:29 11° WNW 07:08:42 10° W visible
15 Jan 9.7 17:42:33 10° SW 17:45:14 19° W 17:47:56 10° NW visible
16 Jan 8.6 05:04:57 10° NE 05:08:00 27° E 05:11:00 10° SSE visible
16 Jan 7.7 06:38:27 10° NNW 06:41:12 21° WNW 06:43:53 10° WSW visible
17 Jan 9.7 04:39:24 10° ENE 04:41:14 14° E 04:43:03 10° ESE visible
17 Jan 6.8 06:11:26 10° N 06:14:47 41° WNW 06:18:05 10° SW visible
18 Jan 6.4 05:44:45 10° NNE 05:48:17 88° ESE 05:51:45 10° SSW visible
18 Jan 9.9 17:57:06 10° WSW 17:58:59 13° W 18:00:53 10° WNW visible
19 Jan 7.8 05:18:21 10° NNE 05:21:41 39° E 05:24:56 10° SSE visible
19 Jan 8.1 06:52:34 10° NNW 06:54:41 15° WNW 06:56:46 10° WSW visible
19 Jan 9.2 17:29:06 10° SSW 17:32:14 26° W 17:35:21 10° NW visible
20 Jan 9.2 04:52:22 10° NE 04:54:57 19° E 04:57:30 10° SE visible
20 Jan 7.3 06:25:15 10° N 06:28:19 28° WNW 06:31:20 10° SW visible
21 Jan 6.4 05:58:23 10° N 06:01:52 61° WNW 06:05:15 10° SSW visible
22 Jan 7.0 05:31:50 10° NNE 05:35:18 59° E 05:38:41 10° S visible
22 Jan 8.5 07:07:10 10° NW 07:08:07 11° WNW 07:09:03 10° WNW visible
22 Jan 9.7 17:43:18 10° SW 17:45:55 18° W 17:48:31 10° NW visible
23 Jan 8.6 05:05:36 10° NE 05:08:37 27° E 05:11:35 10° SSE visible
23 Jan 7.8 06:39:09 10° NNW 06:41:47 20° WNW 06:44:24 10° WSW visible
24 Jan 9.7 04:40:01 10° ENE 04:41:50 14° E 04:43:38 10° ESE visible
24 Jan 6.8 06:12:05 10° N 06:15:23 40° WNW 06:18:36 10° SW visible
